Time,TemperatureF,DewpointF,PressureIn,WindDirection,WindDirectionDegrees,WindSpeedMPH,WindSpeedGustMPH,Humidity,HourlyPrecipIn,Conditions,Clouds,dailyrainin,SoftwareType,DateUTC
2013-01-12 00:13:00,57.2,57.0,30.24,SSW,204,2.0,-999.0,99,-99.99,,,0.01,weatherlink.com 1.10,2013-01-12 05:13:00,
2013-01-12 00:28:00,57.1,57.0,30.24,SSW,205,8.0,-999.0,99,-99.99,,,0.02,weatherlink.com 1.10,2013-01-12 05:28:00,
2013-01-12 00:43:00,57.2,57.0,30.24,SSW,204,3.0,-999.0,99,-99.99,,,0.02,weatherlink.com 1.10,2013-01-12 05:43:00,
2013-01-12 00:58:00,57.1,57.0,30.24,SSW,206,2.0,-999.0,99,-99.99,,,0.03,weatherlink.com 1.10,2013-01-12 05:58:00,
2013-01-12 01:13:00,57.1,57.0,30.24,SSW,207,4.0,-999.0,99,-99.99,,,0.04,weatherlink.com 1.10,2013-01-12 06:13:00,
2013-01-12 01:28:00,57.1,57.0,30.24,SSW,204,2.0,-999.0,99,-99.99,,,0.04,weatherlink.com 1.10,2013-01-12 06:28:00,
2013-01-12 01:43:00,57.0,57.0,30.24,SSW,213,6.0,-999.0,99,-99.99,,,0.04,weatherlink.com 1.10,2013-01-12 06:43:00,
2013-01-12 01:58:00,57.0,57.0,30.24,WSW,256,3.0,-999.0,99,-99.99,,,0.04,weatherlink.com 1.10,2013-01-12 06:58:00,
2013-01-12 02:13:00,57.0,57.0,30.24,SW,215,3.0,-999.0,99,-99.99,,,0.04,weatherlink.com 1.10,2013-01-12 07:13:00,
2013-01-12 02:28:00,57.0,57.0,30.24,SSW,209,4.0,-999.0,99,-99.99,,,0.04,weatherlink.com 1.10,2013-01-12 07:28:00,
2013-01-12 02:43:00,56.9,57.0,30.25,SSW,213,2.0,-999.0,99,-99.99,,,0.04,weatherlink.com 1.10,2013-01-12 07:43:00,
2013-01-12 02:58:00,56.8,57.0,30.25,SSW,200,2.0,-999.0,99,-99.99,,,0.04,weatherlink.com 1.10,2013-01-12 07:58:00,
2013-01-12 03:13:00,56.8,57.0,30.25,SSW,207,1.0,-999.0,99,-99.99,,,0.04,weatherlink.com 1.10,2013-01-12 08:13:00,
2013-01-12 03:28:00,56.7,57.0,30.24,WSW,240,3.0,-999.0,99,-99.99,,,0.04,weatherlink.com 1.10,2013-01-12 08:28:00,
2013-01-12 03:43:00,56.6,56.0,30.23,SSW,212,4.0,-999.0,99,-99.99,,,0.04,weatherlink.com 1.10,2013-01-12 08:43:00,
2013-01-12 03:58:00,56.5,56.0,30.23,SSW,211,3.0,-999.0,99,-99.99,,,0.04,weatherlink.com 1.10,2013-01-12 08:58:00,
2013-01-12 04:13:00,56.4,56.0,30.23,SSW,194,2.0,-999.0,99,-99.99,,,0.04,weatherlink.com 1.10,2013-01-12 09:13:00,
2013-01-12 04:28:00,56.2,56.0,30.23,SW,236,2.0,-999.0,99,-99.99,,,0.05,weatherlink.com 1.10,2013-01-12 09:28:00,
2013-01-12 04:58:00,56.1,56.0,30.23,SSW,206,2.0,-999.0,99,-99.99,,,0.05,weatherlink.com 1.10,2013-01-12 09:58:00,
2013-01-12 05:13:00,56.2,56.0,30.23,SW,232,0.0,-999.0,99,-99.99,,,0.05,weatherlink.com 1.10,2013-01-12 10:13:00,
2013-01-12 05:28:00,56.2,56.0,30.22,SW,236,2.0,-999.0,99,-99.99,,,0.05,weatherlink.com 1.10,2013-01-12 10:28:00,
2013-01-12 05:43:00,56.2,56.0,30.22,SSW,203,1.0,-999.0,99,-99.99,,,0.05,weatherlink.com 1.10,2013-01-12 10:43:00,
2013-01-12 05:58:00,56.4,56.0,30.22,SSW,204,2.0,-999.0,99,-99.99,,,0.05,weatherlink.com 1.10,2013-01-12 10:58:00,
2013-01-12 06:28:00,56.8,56.0,30.22,SSW,202,1.0,-999.0,98,-99.99,,,0.05,weatherlink.com 1.10,2013-01-12 11:28:00,
2013-01-12 06:43:00,56.8,56.0,30.23,SSW,205,2.0,-999.0,97,-99.99,,,0.05,weatherlink.com 1.10,2013-01-12 11:43:00,
2013-01-12 06:58:00,56.9,56.0,30.23,SSW,212,1.0,-999.0,97,-99.99,,,0.05,weatherlink.com 1.10,2013-01-12 11:58:00,
2013-01-12 07:13:00,56.9,56.0,30.23,SW,217,1.0,-999.0,97,-99.99,,,0.05,weatherlink.com 1.10,2013-01-12 12:13:00,
2013-01-12 07:28:00,56.9,56.0,30.24,SSW,205,0.0,-999.0,97,-99.99,,,0.05,weatherlink.com 1.10,2013-01-12 12:28:00,
2013-01-12 07:43:00,57.3,56.0,30.24,SW,221,0.0,-999.0,96,-99.99,,,0.05,weatherlink.com 1.10,2013-01-12 12:43:00,
2013-01-12 07:58:00,57.7,56.0,30.25,SSW,205,1.0,-999.0,95,-99.99,,,0.05,weatherlink.com 1.10,2013-01-12 12:58:00,
2013-01-12 08:13:00,57.8,56.0,30.25,SSW,211,5.0,-999.0,95,-99.99,,,0.05,weatherlink.com 1.10,2013-01-12 13:13:00,
2013-01-12 08:28:00,58.0,56.0,30.25,SSW,209,3.0,-999.0,94,-99.99,,,0.05,weatherlink.com 1.10,2013-01-12 13:28:00,
2013-01-12 08:43:00,58.3,57.0,30.25,SSW,209,1.0,-999.0,94,-99.99,,,0.05,weatherlink.com 1.10,2013-01-12 13:43:00,
2013-01-12 08:58:00,58.7,57.0,30.25,SSW,205,0.0,-999.0,93,-99.99,,,0.05,weatherlink.com 1.10,2013-01-12 13:58:00,
2013-01-12 09:13:00,59.3,57.0,30.25,SSW,205,0.0,-999.0,91,-99.99,,,0.05,weatherlink.com 1.10,2013-01-12 14:13:00,
2013-01-12 09:28:00,59.5,57.0,30.26,SSW,205,0.0,-999.0,92,-99.99,,,0.05,weatherlink.com 1.10,2013-01-12 14:28:00,
2013-01-12 09:43:00,59.5,57.0,30.26,SSW,205,0.0,-999.0,91,-99.99,,,0.05,weatherlink.com 1.10,2013-01-12 14:43:00,
2013-01-12 09:58:00,59.7,57.0,30.27,SSW,205,0.0,-999.0,90,-99.99,,,0.05,weatherlink.com 1.10,2013-01-12 14:58:00,
2013-01-12 10:13:00,60.0,57.0,30.27,SSW,205,1.0,-999.0,90,-99.99,,,0.05,weatherlink.com 1.10,2013-01-12 15:13:00,
2013-01-12 10:28:00,60.3,57.0,30.27,SSW,213,0.0,-999.0,90,-99.99,,,0.05,weatherlink.com 1.10,2013-01-12 15:28:00,
2013-01-12 10:43:00,60.2,57.0,30.26,SSW,213,0.0,-999.0,89,-99.99,,,0.05,weatherlink.com 1.10,2013-01-12 15:43:00,
2013-01-12 10:58:00,60.4,57.0,30.26,SSW,213,0.0,-999.0,89,-99.99,,,0.05,weatherlink.com 1.10,2013-01-12 15:58:00,
2013-01-12 11:13:00,60.5,57.0,30.25,SSW,213,0.0,-999.0,89,-99.99,,,0.05,weatherlink.com 1.10,2013-01-12 16:13:00,
2013-01-12 11:28:00,61.1,56.0,30.24,SW,232,0.0,-999.0,84,-99.99,,,0.05,weatherlink.com 1.10,2013-01-12 16:28:00,
2013-01-12 11:43:00,60.9,58.0,30.23,SSW,209,0.0,-999.0,91,-99.99,,,0.05,weatherlink.com 1.10,2013-01-12 16:43:00,
2013-01-12 11:58:00,60.1,58.0,30.23,SSW,209,0.0,-999.0,92,-99.99,,,0.05,weatherlink.com 1.10,2013-01-12 16:58:00,
2013-01-12 12:13:00,59.7,58.0,30.22,SSW,209,0.0,-999.0,94,-99.99,,,0.05,weatherlink.com 1.10,2013-01-12 17:13:00,
2013-01-12 12:28:00,59.9,58.0,30.22,SSW,209,2.0,-999.0,93,-99.99,,,0.05,weatherlink.com 1.10,2013-01-12 17:28:00,
2013-01-12 12:43:00,60.3,58.0,30.21,SSW,209,2.0,-999.0,92,-99.99,,,0.05,weatherlink.com 1.10,2013-01-12 17:43:00,
2013-01-12 12:58:00,60.5,58.0,30.20,SSW,211,1.0,-999.0,92,-99.99,,,0.05,weatherlink.com 1.10,2013-01-12 17:58:00,
2013-01-12 13:13:00,61.0,58.0,30.20,SSW,205,0.0,-999.0,89,-99.99,,,0.05,weatherlink.com 1.10,2013-01-12 18:13:00,
2013-01-12 13:28:00,61.4,58.0,30.20,SSW,199,4.0,-999.0,89,-99.99,,,0.05,weatherlink.com 1.10,2013-01-12 18:28:00,
2013-01-12 13:43:00,62.3,57.0,30.20,SSW,199,0.0,-999.0,84,-99.99,,,0.05,weatherlink.com 1.10,2013-01-12 18:43:00,
2013-01-12 13:58:00,62.3,57.0,30.20,SSW,202,1.0,-999.0,83,-99.99,,,0.05,weatherlink.com 1.10,2013-01-12 18:58:00,
2013-01-12 14:13:00,62.4,56.0,30.19,WSW,254,2.0,-999.0,80,-99.99,,,0.05,weatherlink.com 1.10,2013-01-12 19:13:00,
2013-01-12 14:28:00,61.9,55.0,30.19,SSW,202,1.0,-999.0,78,-99.99,,,0.05,weatherlink.com 1.10,2013-01-12 19:28:00,
2013-01-12 14:43:00,62.5,56.0,30.19,SSW,212,2.0,-999.0,79,-99.99,,,0.05,weatherlink.com 1.10,2013-01-12 19:43:00,
2013-01-12 14:58:00,62.7,56.0,30.19,SSW,207,2.0,-999.0,79,-99.99,,,0.05,weatherlink.com 1.10,2013-01-12 19:58:00,
2013-01-12 15:13:00,61.8,57.0,30.19,SW,219,0.0,-999.0,83,-99.99,,,0.05,weatherlink.com 1.10,2013-01-12 20:13:00,
2013-01-12 15:28:00,61.9,56.0,30.19,SW,219,1.0,-999.0,82,-99.99,,,0.05,weatherlink.com 1.10,2013-01-12 20:28:00,
2013-01-12 15:43:00,61.8,57.0,30.18,SW,217,0.0,-999.0,84,-99.99,,,0.05,weatherlink.com 1.10,2013-01-12 20:43:00,
2013-01-12 16:13:00,60.4,57.0,30.19,ESE,102,1.0,-999.0,87,-99.99,,,0.05,weatherlink.com 1.10,2013-01-12 21:13:00,
2013-01-12 16:28:00,59.7,56.0,30.19,South,184,0.0,-999.0,88,-99.99,,,0.05,weatherlink.com 1.10,2013-01-12 21:28:00,
2013-01-12 16:43:00,58.9,56.0,30.19,SW,219,0.0,-999.0,89,-99.99,,,0.05,weatherlink.com 1.10,2013-01-12 21:43:00,
2013-01-12 16:58:00,58.5,56.0,30.18,SW,219,0.0,-999.0,91,-99.99,,,0.05,weatherlink.com 1.10,2013-01-12 21:58:00,
2013-01-12 17:13:00,58.1,56.0,30.18,South,169,0.0,-999.0,91,-99.99,,,0.05,weatherlink.com 1.10,2013-01-12 22:13:00,
2013-01-12 17:28:00,57.7,55.0,30.18,SW,226,1.0,-999.0,91,-99.99,,,0.05,weatherlink.com 1.10,2013-01-12 22:28:00,
2013-01-12 17:58:00,56.9,55.0,30.19,SE,133,2.0,-999.0,93,-99.99,,,0.05,weatherlink.com 1.10,2013-01-12 22:58:00,
2013-01-12 18:13:00,56.7,55.0,30.18,SSE,161,0.0,-999.0,93,-99.99,,,0.05,weatherlink.com 1.10,2013-01-12 23:13:00,
2013-01-12 18:43:00,56.5,55.0,30.19,SSW,208,0.0,-999.0,93,-99.99,,,0.05,weatherlink.com 1.10,2013-01-12 23:43:00,
2013-01-12 18:58:00,56.6,55.0,30.20,SW,215,0.0,-999.0,93,-99.99,,,0.05,weatherlink.com 1.10,2013-01-12 23:58:00,
2013-01-12 19:13:00,56.6,55.0,30.19,SSW,203,0.0,-999.0,93,-99.99,,,0.05,weatherlink.com 1.10,2013-01-13 00:13:00,
2013-01-12 19:28:00,56.6,55.0,30.19,SW,227,0.0,-999.0,94,-99.99,,,0.05,weatherlink.com 1.10,2013-01-13 00:28:00,
2013-01-12 19:43:00,56.6,55.0,30.19,SSW,209,1.0,-999.0,94,-99.99,,,0.05,weatherlink.com 1.10,2013-01-13 00:43:00,
2013-01-12 19:58:00,56.6,55.0,30.18,SSW,195,1.0,-999.0,94,-99.99,,,0.05,weatherlink.com 1.10,2013-01-13 00:58:00,
2013-01-12 20:13:00,56.5,55.0,30.18,SW,217,3.0,-999.0,95,-99.99,,,0.05,weatherlink.com 1.10,2013-01-13 01:13:00,
2013-01-12 20:28:00,56.4,55.0,30.18,SSW,211,0.0,-999.0,95,-99.99,,,0.05,weatherlink.com 1.10,2013-01-13 01:28:00,
2013-01-12 20:43:00,56.4,55.0,30.18,SSW,208,0.0,-999.0,95,-99.99,,,0.05,weatherlink.com 1.10,2013-01-13 01:43:00,
2013-01-12 20:58:00,56.3,55.0,30.18,South,179,1.0,-999.0,95,-99.99,,,0.05,weatherlink.com 1.10,2013-01-13 01:58:00,
2013-01-12 21:13:00,56.2,55.0,30.18,WSW,240,0.0,-999.0,95,-99.99,,,0.05,weatherlink.com 1.10,2013-01-13 02:13:00,
2013-01-12 21:28:00,56.1,55.0,30.17,SW,232,0.0,-999.0,95,-99.99,,,0.05,weatherlink.com 1.10,2013-01-13 02:28:00,
2013-01-12 21:43:00,56.2,55.0,30.17,South,180,3.0,-999.0,94,-99.99,,,0.05,weatherlink.com 1.10,2013-01-13 02:43:00,
2013-01-12 21:58:00,56.2,55.0,30.17,WSW,242,0.0,-999.0,95,-99.99,,,0.05,weatherlink.com 1.10,2013-01-13 02:58:00,
2013-01-12 22:13:00,56.0,55.0,30.17,SW,224,1.0,-999.0,95,-99.99,,,0.05,weatherlink.com 1.10,2013-01-13 03:13:00,
2013-01-12 22:28:00,56.0,55.0,30.17,SW,229,2.0,-999.0,95,-99.99,,,0.05,weatherlink.com 1.10,2013-01-13 03:28:00,
2013-01-12 22:43:00,55.9,55.0,30.17,SW,230,0.0,-999.0,96,-99.99,,,0.05,weatherlink.com 1.10,2013-01-13 03:43:00,
2013-01-12 22:58:00,55.9,55.0,30.17,South,184,1.0,-999.0,96,-99.99,,,0.05,weatherlink.com 1.10,2013-01-13 03:58:00,
2013-01-12 23:13:00,55.8,54.0,30.16,SW,234,0.0,-999.0,95,-99.99,,,0.05,weatherlink.com 1.10,2013-01-13 04:13:00,
2013-01-12 23:28:00,55.7,54.0,30.17,SW,216,0.0,-999.0,95,-99.99,,,0.05,weatherlink.com 1.10,2013-01-13 04:28:00,
2013-01-12 23:43:00,55.6,54.0,30.17,NE,34,1.0,-999.0,95,-99.99,,,0.05,weatherlink.com 1.10,2013-01-13 04:43:00,
2013-01-12 23:58:00,55.8,54.0,30.17,SSW,209,0.0,-999.0,94,-99.99,,,0.05,weatherlink.com 1.10,2013-01-13 04:58:00,